Weather History for McComb, MS

Change the Weather History Date:

Sunday, March 10, 2013

  Actual Average Record
Temperature  
Mean Temperature 65 °F -  
Max Temperature 73 °F 72 °F 84 °F (1985)
Min Temperature 54 °F 45 °F 29 °F (1969)
Growing Degree Days 15 (Base 50)    
Moisture  
Dew Point 61 °F    
Average Humidity 82    
Maximum Humidity 97    
Minimum Humidity 64    
Precipitation  
Precipitation 0.14 in - - ()
Sea Level Pressure  
Sea Level Pressure 29.90 in    
Wind  
Wind Speed 12 mph (SSE)    
Max Wind Speed 25 mph    
Max Gust Speed 34 mph    
Visibility 8 miles    
Events Rain    
Averages and records for this station are not official NWS values.
T = Trace of Precipitation, MM = Missing Value Source: NWS Daily Summary

Daily Weather History Graph

Daily Weather History Graph

Search for Another Location

Airport:

Trip Planner

Search our weather history database for the weather conditions in past years. The results will help you decide how hot, cold, wet, or windy it might be!

Date:

Astronomy

Mar. 10, 2013 Rise Set
Actual Time 7:17 AM CDT 7:06 PM CDT
Civil Twilight 6:53 AM CDT 7:31 PM CDT
Nautical Twilight 6:25 AM CDT 7:59 PM CDT
Astronomical Twilight 5:57 AM CDT 8:27 PM CDT
Moon 6:15 AM CDT (3/10) 6:15 PM CDT (3/10)
Length of Visible Light 12h 37m
Length of Day
11h 49m
Waning Crescent, 2% of the Moon is Illuminated
Mar 10
Waning Crescent
Mar 11
New
Mar 19
First Quarter
Mar 27
Full
Apr 2
Last Quarter

Hourly Weather History & Observations

Time (CDT) Temp. Dew Point Humidity Pressure Visibility Wind Dir Wind Speed Gust Speed Precip Events Conditions
12:53 AM 62.1 °F 59.0 °F 90% 29.95 in 9.0 mi SSE 10.4 mph - N/A   Overcast
1:53 AM 62.1 °F 59.0 °F 90% 29.94 in 8.0 mi SE 8.1 mph - N/A   Overcast
3:53 AM 63.0 °F 60.1 °F 90% 29.91 in 7.0 mi SSE 6.9 mph - N/A   Overcast
4:53 AM 63.0 °F 60.1 °F 90% 29.92 in 8.0 mi SE 5.8 mph - N/A   Overcast
5:53 AM 63.0 °F 60.1 °F 90% 29.91 in 8.0 mi SSE 8.1 mph - N/A   Overcast
6:45 AM 62.6 °F 60.8 °F 94% 29.91 in 8.0 mi SE 11.5 mph - N/A   Scattered Clouds
7:06 AM 62.6 °F 60.8 °F 94% 29.90 in 7.0 mi SE 11.5 mph - N/A   Mostly Cloudy
7:17 AM 62.6 °F 60.8 °F 94% 29.90 in 6.0 mi SSE 12.7 mph 20.7 mph N/A   Mostly Cloudy
7:53 AM 63.0 °F 60.1 °F 90% 29.90 in 6.0 mi SSE 11.5 mph 16.1 mph N/A   Mostly Cloudy
8:51 AM 64.4 °F 60.8 °F 88% 29.92 in 8.0 mi SSE 11.5 mph - N/A   Overcast
8:53 AM 64.0 °F 61.0 °F 90% 29.92 in 8.0 mi SSE 13.8 mph - N/A   Overcast
9:37 AM 66.2 °F 60.8 °F 83% 29.96 in 10.0 mi SSE 16.1 mph 23.0 mph N/A   Overcast
9:53 AM 68.0 °F 61.0 °F 78% 29.95 in 10.0 mi SSE 13.8 mph 21.9 mph N/A   Overcast
10:53 AM 69.1 °F 61.0 °F 75% 29.95 in 10.0 mi SSE 11.5 mph 21.9 mph N/A   Overcast
11:01 AM 69.8 °F 60.8 °F 73% 29.96 in 10.0 mi South 11.5 mph 20.7 mph N/A   Overcast
11:19 AM 71.6 °F 60.8 °F 69% 29.96 in 9.0 mi South 25.3 mph 32.2 mph N/A   Overcast
11:53 AM 70.0 °F 61.0 °F 73% 29.94 in 4.0 mi South 16.1 mph 28.8 mph 0.00 in   Haze
12:00 PM 71.6 °F 62.6 °F 73% 29.95 in 4.0 mi South 20.7 mph 26.5 mph N/A   Haze
12:34 PM 69.8 °F 62.6 °F 78% 29.94 in 4.0 mi SSE 17.3 mph 32.2 mph 0.00 in Rain Light Rain
12:53 PM 68.0 °F 64.0 °F 87% 29.92 in 4.0 mi SSE 16.1 mph 28.8 mph 0.00 in Rain Light Rain
1:46 PM 71.6 °F 62.6 °F 73% 29.90 in 10.0 mi SSE 21.9 mph 28.8 mph 0.00 in   Overcast
1:53 PM 72.0 °F 62.1 °F 71% 29.89 in 10.0 mi SSE 20.7 mph 28.8 mph 0.00 in   Overcast
2:30 PM 73.4 °F 60.8 °F 65% 29.88 in 10.0 mi South 18.4 mph 34.5 mph N/A   Overcast
2:53 PM 73.9 °F 61.0 °F 64% 29.87 in 10.0 mi SSE 25.3 mph 32.2 mph N/A   Overcast
3:53 PM 73.0 °F 62.1 °F 68% 29.86 in 10.0 mi SSE 16.1 mph 26.5 mph N/A   Overcast
4:53 PM 73.0 °F 61.0 °F 66% 29.83 in 10.0 mi SSE 15.0 mph 29.9 mph N/A   Overcast
5:53 PM 72.0 °F 62.1 °F 71% 29.84 in 10.0 mi South 17.3 mph 25.3 mph N/A   Overcast
6:53 PM 71.1 °F 63.0 °F 75% 29.84 in 10.0 mi South 12.7 mph 25.3 mph N/A   Overcast
7:30 PM 69.8 °F 62.6 °F 78% 29.86 in 10.0 mi South 12.7 mph 23.0 mph N/A   Overcast
7:53 PM 70.0 °F 63.0 °F 78% 29.86 in 10.0 mi South 13.8 mph 23.0 mph N/A   Overcast
8:53 PM 69.1 °F 64.0 °F 84% 29.86 in 10.0 mi South 13.8 mph - N/A   Overcast
9:04 PM 62.6 °F 59.0 °F 88% 29.87 in 10.0 mi Calm Calm - N/A   Overcast
9:34 PM 69.8 °F 64.4 °F 83% 29.87 in 10.0 mi South 17.3 mph 23.0 mph N/A   Overcast
9:53 PM 68.0 °F 64.0 °F 87% 29.86 in 10.0 mi South 15.0 mph 19.6 mph N/A   Overcast
10:43 PM 60.8 °F 57.2 °F 88% 29.88 in 10.0 mi NNW 3.5 mph - N/A   Overcast
10:53 PM 61.0 °F 57.9 °F 90% 29.86 in 10.0 mi NW 12.7 mph - N/A   Overcast
11:53 PM 57.9 °F 55.9 °F 93% 29.89 in 8.0 mi NNW 10.4 mph - 0.03 in Rain Light Rain
12:07 AM 57.2 °F 55.4 °F 94% 29.91 in 6.0 mi WNW 12.7 mph - 0.05 in Rain Light Rain
12:53 AM 54.0 °F 53.1 °F 97% 29.93 in 6.0 mi NW 10.4 mph - 0.11 in Rain Rain